カタログに戻る

CZ-6A DEB

運用中PO
NORAD 60662·DEBRIS·🇨🇳 China

打ち上げ Aug 6, 2024 から Taiyuan Satellite Launch Center

Loading…

次のパス (今後24時間)

TLE

最新Source: Space-Track

元期: Sep 14, 2026, 07:17 UTC

1 60662U 24140BP  26257.30386042  .00000133  00000-0  65360-4 0  9990
2 60662  88.9637 263.2435 0091394 275.2075  83.8685 14.09898995107987

AllMySatでCZ-6A DEBをリアルタイム追跡

Download on the App Store